Friendship, ME

3:07 PM EST on February 06, 2016 (GMT -0500)
Knox County Regional

Weather History for KRKD - March, 2014

Change the Weather History Date:

Tuesday, March 25, 2014

  Actual Average Record
Temperature  
Mean Temperature 19 °F -  
Max Temperature 32 °F 40 °F 48 °F (2009)
Min Temperature 6 °F 27 °F 6 °F (2014)
Degree Days  
Heating Degree Days 46    
Moisture  
Dew Point 10 °F    
Average Humidity 62    
Maximum Humidity 93    
Minimum Humidity 37    
Precipitation  
Precipitation 0.00 in - - ()
Sea Level Pressure  
Sea Level Pressure 30.08 in    
Wind  
Wind Speed 4 mph (SSW)    
Max Wind Speed 14 mph    
Max Gust Speed 26 mph    
Visibility 10 miles    
Events      
Averages and records for this station are not official NWS values.
T = Trace of Precipitation, MM = Missing Value Source: NWS Daily Summary

Daily Weather History Graph

Daily Weather History Graph

Search for Another Location

Airport or City:

Trip Planner

Search our weather history database for the weather conditions in past years. The results will help you decide how hot, cold, wet, or windy it might be!

Date:

Astronomy

Mar. 25, 2014 Rise Set
Actual Time 6:30 AM EDT 6:54 PM EDT
Civil Twilight 6:01 AM EDT 7:23 PM EDT
Nautical Twilight 5:27 AM EDT 7:58 PM EDT
Astronomical Twilight 4:52 AM EDT 8:33 PM EDT
Moon 3:00 AM EDT (3/25) 1:11 PM EDT (3/25)
Length of Visible Light 13h 22m
Length of Day
12h 24m
Waning Crescent, 32% of the Moon is Illuminated
Mar 25
Waning Crescent
Mar 30
New
Apr 7
First Quarter
Apr 15
Full
Apr 22
Last Quarter

Hourly Weather History & Observations

Time (EDT) Temp. Windchill Dew Point Humidity Pressure Visibility Wind Dir Wind Speed Gust Speed Precip Events Conditions
12:15 AM 12.2 °F 4.3 °F 3.2 °F 67% 30.11 in 10.0 mi WSW 4.6 mph - N/A   Clear
12:35 AM 15.8 °F 10.2 °F 1.4 °F 53% 30.11 in 10.0 mi WNW 3.5 mph - N/A   Clear
12:55 AM 14.0 °F - -0.4 °F 53% 30.11 in 10.0 mi Calm Calm - N/A   Clear
1:15 AM 12.2 °F - -0.4 °F 57% 30.11 in 10.0 mi Calm Calm - N/A   Clear
1:35 AM 12.2 °F - 3.2 °F 67% 30.12 in 10.0 mi Calm Calm - N/A   Clear
1:55 AM 10.4 °F - 3.2 °F 73% 30.11 in 10.0 mi Calm Calm - N/A   Clear
2:15 AM 10.4 °F - 1.4 °F 67% 30.11 in 10.0 mi Calm Calm - N/A   Clear
2:35 AM 10.4 °F - 3.2 °F 73% 30.11 in 10.0 mi Calm Calm - N/A   Clear
2:55 AM 10.4 °F - 3.2 °F 73% 30.11 in 10.0 mi Calm Calm - N/A   Clear
3:15 AM 10.4 °F - 3.2 °F 73% 30.11 in 10.0 mi Calm Calm - N/A   Clear
3:35 AM 8.6 °F - 3.2 °F 79% 30.11 in 10.0 mi Calm Calm - N/A   Clear
3:55 AM 10.4 °F - 6.8 °F 85% 30.11 in 10.0 mi Calm Calm - N/A   Clear
4:15 AM 8.6 °F - 3.2 °F 79% 30.11 in 10.0 mi Calm Calm - N/A   Clear
4:35 AM 8.6 °F - 3.2 °F 79% 30.11 in 10.0 mi Calm Calm - N/A   Clear
4:55 AM 6.8 °F -2.0 °F 3.2 °F 85% 30.11 in 10.0 mi West 4.6 mph - N/A   Clear
5:15 AM 8.6 °F - 6.8 °F 92% 30.12 in 10.0 mi Calm Calm - N/A   Clear
5:35 AM 8.6 °F - 1.4 °F 73% 30.12 in 10.0 mi Calm Calm - N/A   Clear
5:55 AM 8.6 °F - 5.0 °F 85% 30.12 in 10.0 mi Calm Calm - N/A   Clear
6:15 AM 8.6 °F - 5.0 °F 85% 30.12 in 10.0 mi Calm Calm - N/A   Clear
6:35 AM 6.8 °F - 1.4 °F 79% 30.12 in 10.0 mi Calm Calm - N/A   Clear
6:55 AM 8.6 °F - 5.0 °F 85% 30.13 in 10.0 mi Calm Calm - N/A   Clear
7:15 AM 8.6 °F - 6.8 °F 92% 30.13 in 10.0 mi Calm Calm - N/A   Clear
7:35 AM 10.4 °F - 6.8 °F 85% 30.12 in 10.0 mi Calm Calm - N/A   Clear
7:55 AM 15.8 °F - 12.2 °F 86% 30.12 in 10.0 mi Calm Calm - N/A   Clear
8:15 AM 19.4 °F - 12.2 °F 74% 30.12 in 10.0 mi Calm Calm - N/A   Clear
8:35 AM 24.8 °F 16.9 °F 5.0 °F 43% 30.12 in 10.0 mi SSE 6.9 mph - N/A   Clear
8:55 AM 24.8 °F 16.9 °F 5.0 °F 43% 30.12 in 10.0 mi SE 6.9 mph - N/A   Clear
9:15 AM 26.6 °F 16.8 °F 6.8 °F 43% 30.12 in 10.0 mi SE 10.4 mph - N/A   Clear
9:35 AM 26.6 °F 16.2 °F 6.8 °F 43% 30.12 in 10.0 mi SSE 11.5 mph - N/A   Clear
9:55 AM 26.6 °F 18.2 °F 8.6 °F 47% 30.11 in 10.0 mi SSE 8.1 mph - N/A   Clear
10:15 AM 26.6 °F 16.2 °F 8.6 °F 47% 30.10 in 10.0 mi ESE 11.5 mph - N/A   Clear
10:35 AM 28.4 °F 18.5 °F 6.8 °F 40% 30.10 in 10.0 mi SSE 11.5 mph - N/A   Clear
10:55 AM 28.4 °F 18.0 °F 10.4 °F 47% 30.10 in 10.0 mi South 12.7 mph - N/A   Mostly Cloudy
11:15 AM 28.4 °F 18.5 °F 8.6 °F 43% 30.09 in 10.0 mi South 11.5 mph - N/A   Overcast
11:35 AM 26.6 °F 16.2 °F 14.0 °F 59% 30.09 in 8.0 mi South 11.5 mph 18.4 mph N/A   Overcast
11:55 AM 26.6 °F 16.8 °F 19.4 °F 74% 30.09 in 2.5 mi South 10.4 mph - N/A   Overcast
12:15 PM 26.6 °F 17.5 °F 24.8 °F 93% 30.08 in 1.5 mi South 9.2 mph - N/A   Overcast
12:35 PM 28.4 °F 19.1 °F 24.8 °F 86% 30.07 in 10.0 mi SSE 10.4 mph 16.1 mph N/A   Overcast
12:55 PM 28.4 °F 20.4 °F 21.2 °F 74% 30.07 in 10.0 mi South 8.1 mph 17.3 mph N/A   Mostly Cloudy
1:15 PM 30.2 °F 21.3 °F 6.8 °F 37% 30.06 in 10.0 mi South 10.4 mph 19.6 mph N/A   Partly Cloudy
1:35 PM 30.2 °F 20.2 °F 12.2 °F 47% 30.06 in 10.0 mi South 12.7 mph 16.1 mph N/A   Clear
1:55 PM 30.2 °F 19.8 °F 10.4 °F 44% 30.06 in 10.0 mi SSW 13.8 mph 19.6 mph N/A   Clear
2:15 PM 30.2 °F 20.8 °F 10.4 °F 44% 30.06 in 10.0 mi SSW 11.5 mph - N/A   Clear
2:35 PM 30.2 °F 19.8 °F 12.2 °F 47% 30.05 in 10.0 mi SSW 13.8 mph 26.5 mph N/A   Clear
2:55 PM 30.2 °F 21.3 °F 10.4 °F 44% 30.05 in 10.0 mi SW 10.4 mph 17.3 mph N/A   Clear
3:15 PM 30.2 °F 19.8 °F 10.4 °F 44% 30.05 in 10.0 mi SSW 13.8 mph 19.6 mph N/A   Clear
3:35 PM 32.0 °F 22.1 °F 10.4 °F 41% 30.05 in 10.0 mi SW 13.8 mph 20.7 mph N/A   Clear
3:55 PM 32.0 °F 24.2 °F 12.2 °F 44% 30.05 in 10.0 mi SW 9.2 mph 20.7 mph N/A   Clear
4:15 PM 32.0 °F 23.0 °F 12.2 °F 44% 30.04 in 10.0 mi SW 11.5 mph 17.3 mph N/A   Clear
4:35 PM 30.2 °F 19.8 °F 10.4 °F 44% 30.04 in 10.0 mi SW 13.8 mph 18.4 mph N/A   Partly Cloudy
4:55 PM 32.0 °F 24.2 °F 10.4 °F 41% 30.04 in 10.0 mi SW 9.2 mph - N/A   Clear
5:15 PM 30.2 °F 21.3 °F 10.4 °F 44% 30.04 in 10.0 mi SW 10.4 mph - N/A   Partly Cloudy
5:35 PM 30.2 °F 21.9 °F 10.4 °F 44% 30.05 in 10.0 mi SW 9.2 mph 17.3 mph N/A   Clear
5:55 PM 30.2 °F 21.9 °F 12.2 °F 47% 30.05 in 10.0 mi SSW 9.2 mph - N/A   Clear
6:15 PM 30.2 °F 21.3 °F 12.2 °F 47% 30.05 in 10.0 mi SW 10.4 mph - N/A   Clear
6:35 PM 30.2 °F 22.6 °F 10.4 °F 44% 30.06 in 10.0 mi SW 8.1 mph - N/A   Clear
6:55 PM 28.4 °F 20.4 °F 10.4 °F 47% 30.06 in 10.0 mi SW 8.1 mph - N/A   Clear
7:15 PM 28.4 °F 20.4 °F 12.2 °F 51% 30.06 in 10.0 mi SW 8.1 mph - N/A   Clear
7:35 PM 28.4 °F 22.2 °F 12.2 °F 51% 30.06 in 10.0 mi SW 5.8 mph - N/A   Clear
7:55 PM 28.4 °F - 12.2 °F 51% 30.06 in 10.0 mi Calm Calm - N/A   Clear
8:15 PM 28.4 °F - 12.2 °F 51% 30.07 in 10.0 mi Calm Calm - N/A   Clear
8:35 PM 26.6 °F - 14.0 °F 59% 30.07 in 10.0 mi Calm Calm - N/A   Clear
8:55 PM 26.6 °F - 14.0 °F 59% 30.07 in 10.0 mi Calm Calm - N/A   Clear
9:15 PM 24.8 °F - 14.0 °F 64% 30.06 in 10.0 mi Calm Calm - N/A   Clear
9:35 PM 24.8 °F - 15.8 °F 69% 30.06 in 10.0 mi Calm Calm - N/A   Clear
9:55 PM 24.8 °F - 15.8 °F 69% 30.06 in 10.0 mi Calm Calm - N/A   Clear
10:15 PM 23.0 °F - 15.8 °F 74% 30.06 in 10.0 mi Calm Calm - N/A   Clear
10:35 PM 24.8 °F - 15.8 °F 69% 30.07 in 10.0 mi Calm Calm - N/A   Clear
10:55 PM 21.2 °F - 17.6 °F 86% 30.07 in 10.0 mi Calm Calm - N/A   Clear
11:15 PM 21.2 °F 16.4 °F 15.8 °F 80% 30.06 in 10.0 mi NNE 3.5 mph - N/A   Clear
11:35 PM 21.2 °F - 17.6 °F 86% 30.05 in 10.0 mi Calm Calm - N/A   Clear
11:55 PM 21.2 °F - 17.6 °F 86% 30.04 in 10.0 mi Calm Calm - N/A   Clear